GFSCGP_con_3kmhel_072.txt.gz
Helicity
99 166 176 97 55 54 37 103 120 209 202 115 69 164 122 43 80 110 70 76 113 214 229 233 342 320 276 241 228 144 148 176 179 145 157 105 86 78 83 87 90 93 107 78
109 124 60 37 26 34 62 76 64 199 91 118 100 64 86 43 97 172 225 134 79 92 271 379 395 294 238 189 168 179 125 143 176 128 102 77 84 74 92 99 124 109 106 83
67 62 39 -5 20 54 123 165 113 72 78 56 84 65 -53 110 162 92 82 107 112 107 184 344 373 274 209 151 150 163 156 154 176 104 94 106 122 135 149 123 133 113 95 113
-7 117 51 83 108 113 129 53 136 143 90 40 88 36 25 109 157 165 206 103 59 41 115 300 344 289 190 120 143 119 143 162 128 104 117 104 99 103 101 124 110 108 158 126
77 62 107 87 120 76 134 135 90 63 53 56 51 56 48 130 140 251 179 79 50 26 79 229 291 263 168 127 149 114 135 134 131 123 126 117 111 112 118 150 209 202 174 141
84 122 69 117 160 208 104 104 102 84 62 90 18 87 80 179 281 253 151 92 74 60 91 185 238 239 178 160 166 161 139 129 131 147 154 137 129 143 171 192 221 200 199 231
33 78 117 64 143 130 91 93 122 95 72 34 104 100 157 171 163 169 148 114 85 76 135 223 255 252 219 214 183 168 142 124 145 145 145 157 176 193 201 185 216 269 284 278
44 61 46 45 106 69 41 83 124 151 104 83 56 73 132 160 121 137 135 104 107 115 133 167 121 109 104 113 117 123 121 120 115 138 217 249 249 223 201 213 235 258 257 245
25 70 79 115 74 130 87 77 92 91 66 80 68 182 142 113 98 114 154 142 130 131 137 157 178 196 225 249 241 220 205 212 208 205 177 173 177 175 156 190 203 212 208 176
122 65 78 55 81 93 117 112 96 88 107 79 31 85 132 143 119 146 161 147 145 130 141 159 187 199 174 171 179 205 197 171 140 155 181 221 239 243 237 233 205 188 151 135
101 62 42 55 54 77 84 84 83 108 101 135 110 151 89 100 127 125 150 138 150 163 168 176 143 120 140 159 164 127 114 117 125 165 178 191 185 194 206 176 145 124 132 130
43 79 24 75 69 100 95 68 51 84 102 72 91 105 180 222 136 194 192 199 212 214 219 178 121 138 170 159 130 108 75 73 92 139 148 123 131 148 151 147 147 143 134 127
89 76 32 32 37 54 52 35 79 103 83 79 97 93 112 130 144 185 228 210 203 171 140 115 196 237 202 179 144 122 108 90 132 196 174 146 148 147 139 147 137 125 116 111
56 60 88 58 63 49 41 47 46 59 66 58 78 106 129 118 148 170 194 203 182 178 153 215 247 222 208 167 142 133 131 171 224 204 182 141 120 130 136 119 110 107 103 106
67 69 70 41 67 67 73 41 42 31 27 80 67 137 104 101 113 132 152 153 170 222 199 293 263 190 168 144 125 114 138 165 166 162 125 108 131 118 107 108 103 101 103 101
37 42 43 24 34 32 30 28 35 49 55 69 81 92 115 149 221 211 233 217 208 210 390 375 250 188 167 143 129 134 138 179 177 151 138 128 114 105 106 108 111 109 108 105
29 31 37 38 32 30 23 49 56 70 78 88 78 134 116 117 130 176 166 232 257 385 391 286 202 176 142 127 130 137 139 146 140 127 117 107 97 108 115 118 113 107 101 108
30 37 48 51 44 33 59 66 77 78 83 80 98 96 115 130 134 179 252 322 427 431 288 209 179 156 129 132 138 141 137 117 111 110 104 100 118 117 108 102 105 113 118 111
63 52 52 59 52 63 57 48 84 80 62 47 60 150 116 154 191 189 400 404 348 277 235 208 174 132 126 117 110 140 123 100 96 99 105 120 112 109 102 101 113 116 116 125
54 90 97 88 74 34 61 58 55 63 44 74 80 117 128 195 188 291 365 334 300 250 206 168 131 107 119 122 127 128 113 100 88 106 116 109 106 106 103 116 122 144 144 131
65 77 76 74 66 39 90 75 85 69 45 95 116 132 174 254 254 350 328 297 229 203 172 133 112 117 91 93 109 109 99 85 99 118 109 105 101 105 106 121 137 149 126 108
55 64 53 62 28 -26 116 95 53 65 120 168 176 235 311 365 332 313 268 244 221 185 149 122 127 109 78 71 74 85 104 110 121 110 105 116 103 103 101 123 144 119 107 114
51 43 -26 -15 -27 79 61 85 124 140 152 189 233 258 284 292 273 247 222 208 193 169 137 103 102 75 54 69 81 91 96 113 123 120 110 115 104 103 114 144 114 110 116 110
-18 22 -1 74 70 93 88 102 149 157 225 250 274 273 253 262 239 205 210 199 167 140 112 94 84 85 71 74 69 84 96 131 154 124 117 107 107 102 141 133 116 121 127 83
35 93 11 34 32 110 99 114 169 200 208 265 268 236 245 252 203 218 214 187 146 107 95 97 84 79 80 89 79 83 103 139 141 124 113 102 108 124 130 115 117 112 100 62
119 110 125 57 83 119 165 138 187 285 231 235 233 235 212 188 220 209 172 142 92 93 98 76 70 89 91 87 87 88 101 128 139 116 112 104 110 129 115 123 107 65 36 10

GFSCGP_con_3kmhel_075.txt.gz
Helicity
253 284 253 240 262 173 119 111 128 164 156 191 132 83 66 84 142 159 226 22 99 124 219 350 449 457 466 429 324 216 258 211 230 194 188 160 119 99 102 93 88 81 71 79
179 166 147 130 84 53 38 102 202 249 193 152 74 47 49 46 94 145 194 163 122 196 317 437 477 503 465 386 279 184 178 165 167 175 143 130 110 91 104 106 116 119 123 124
144 99 63 63 42 41 18 97 152 133 153 135 90 54 37 55 122 140 198 171 113 170 297 420 462 458 431 344 262 155 116 138 153 137 159 172 166 157 164 135 121 120 130 137
53 3 34 19 31 27 105 99 112 139 164 91 71 38 41 94 174 266 236 143 97 93 191 277 399 393 342 261 213 155 142 180 164 159 167 151 130 128 120 133 147 145 151 143
59 66 59 56 70 127 101 118 143 85 114 132 104 91 47 140 217 211 188 88 62 79 210 245 330 285 225 220 180 186 155 160 173 179 172 169 144 120 125 146 155 168 170 156
42 67 75 125 103 119 125 214 252 162 135 148 41 141 92 90 176 207 153 90 102 133 175 237 230 229 201 198 170 158 189 194 152 169 158 157 139 125 150 176 211 231 254 288
130 97 70 130 155 191 139 193 184 188 173 80 71 137 72 150 180 152 130 117 140 163 247 273 274 250 222 230 216 183 172 169 189 192 170 154 155 172 181 195 208 233 266 283
36 78 99 81 88 94 120 133 142 149 115 99 112 111 62 147 181 159 141 125 149 187 199 238 235 239 238 226 184 154 146 132 162 197 216 198 206 208 201 198 200 202 202 192
52 50 74 84 115 112 102 60 63 93 89 115 93 131 162 160 168 178 128 118 127 168 201 232 252 252 267 259 223 195 193 189 203 223 207 212 227 237 243 244 231 202 181 170
42 59 63 23 32 50 61 63 93 108 74 88 79 141 113 104 132 119 127 119 125 157 203 213 203 195 181 173 174 203 208 205 171 158 161 171 189 205 221 237 232 202 184 175
20 31 55 52 46 43 80 93 99 96 102 104 128 118 74 95 106 118 93 112 130 161 174 171 166 154 140 142 164 157 147 131 126 121 113 125 146 198 213 207 212 203 164 136
43 42 34 36 62 75 71 59 79 90 98 93 78 67 69 68 93 153 101 144 181 198 194 139 129 166 194 171 136 104 85 74 66 83 126 164 183 182 187 178 152 135 122 110
52 44 40 65 61 72 57 56 95 99 102 89 108 77 108 150 202 197 221 218 255 245 198 223 277 300 269 215 184 176 171 148 132 182 212 203 157 162 164 143 118 101 96 92
16 47 37 14 21 33 46 47 53 83 87 74 78 81 120 191 234 221 234 222 207 160 192 247 292 289 230 184 179 162 138 126 157 197 188 175 174 147 112 90 87 94 89 92
34 43 54 31 42 48 41 33 50 57 73 82 117 102 86 122 130 133 136 185 190 187 318 327 318 264 205 186 164 147 145 163 187 192 182 153 114 96 95 106 99 94 93 91
45 37 52 22 45 40 35 33 33 36 49 52 98 130 141 76 137 162 184 219 218 353 455 433 360 291 219 176 154 136 154 179 174 170 138 115 113 111 111 104 96 94 84 85
27 40 49 32 33 38 37 34 57 74 96 104 91 78 117 154 174 167 208 240 405 434 404 371 314 248 194 163 137 146 151 140 143 124 110 99 107 118 99 87 91 86 87 96
30 45 46 28 51 31 41 59 48 45 83 118 127 99 101 98 171 215 212 372 419 406 387 331 253 213 176 132 125 130 142 136 114 100 93 98 106 88 77 88 98 104 111 120
55 57 56 53 51 37 46 49 68 97 75 68 79 92 109 159 217 282 302 323 327 337 305 246 211 164 135 132 123 139 128 107 96 88 87 89 81 75 88 106 109 104 114 116
74 85 81 82 65 34 39 51 57 77 41 68 99 97 136 190 190 197 257 287 327 285 241 213 158 118 120 119 120 121 104 99 92 82 88 84 76 91 112 111 96 100 132 122
82 93 92 97 69 38 45 69 72 60 11 65 106 137 190 189 159 232 291 309 268 234 213 155 124 119 104 91 92 93 88 86 81 99 102 94 87 106 102 101 107 125 97 103
68 84 57 107 94 20 69 79 54 51 84 128 180 185 242 317 313 341 321 296 264 220 148 113 122 105 71 66 81 76 77 76 90 107 112 96 91 95 98 123 116 86 100 123
66 69 59 84 -3 -44 1 60 99 122 146 161 203 214 256 282 285 274 276 250 206 150 113 95 102 94 63 56 70 78 76 79 105 127 105 91 87 88 106 107 76 94 121 131
70 83 38 -14 -21 8 73 126 146 176 179 180 196 218 238 271 243 268 255 216 166 120 101 108 111 89 65 67 85 79 73 90 117 103 93 83 81 73 102 107 93 128 119 111
51 2 -43 -12 -22 67 72 116 174 207 217 231 220 231 250 276 275 249 222 168 123 113 113 99 77 66 66 73 68 72 79 94 102 101 91 78 78 86 105 113 121 119 113 76
51 34 23 -30 -6 89 76 91 198 233 225 204 246 274 265 260 236 204 159 123 124 110 89 72 69 75 58 62 66 70 83 112 116 95 80 62 80 95 104 112 112 76 53 19

GFSCGP_con_3kmhel_078.txt.gz
Helicity
167 240 236 242 210 202 220 223 202 197 147 204 103 112 120 142 116 119 148 179 166 101 213 272 370 446 431 414 406 355 275 211 228 208 186 164 137 127 95 68 72 73 84 89
221 198 200 171 174 172 188 166 168 153 141 156 118 81 35 28 80 96 111 138 129 190 246 333 402 487 404 362 392 357 285 207 178 181 144 146 136 113 102 90 79 84 91 100
150 139 158 155 174 118 108 120 136 129 177 200 145 129 58 42 99 110 145 169 168 167 188 366 456 438 382 356 355 322 248 192 153 148 182 163 157 128 125 112 106 94 100 115
101 76 90 102 105 83 86 42 70 125 206 150 115 134 110 75 154 203 198 175 160 147 155 353 415 400 335 280 239 211 193 151 114 150 160 160 144 127 101 111 117 114 133 133
69 82 76 85 25 38 49 78 108 118 203 142 124 116 65 133 146 170 149 125 100 100 133 234 311 297 234 197 139 144 141 106 112 135 147 163 153 131 139 154 149 160 176 189
13 37 72 56 78 71 70 189 248 196 193 170 112 142 96 119 114 165 140 93 77 106 101 204 227 246 226 190 178 129 133 127 123 142 150 154 150 143 160 162 172 185 207 234
60 89 57 115 122 169 153 269 238 214 191 145 98 133 86 81 73 118 90 108 122 118 147 241 260 240 234 214 190 191 202 217 204 194 187 169 148 148 140 163 181 185 191 203
23 187 103 72 99 79 130 139 134 156 137 102 108 90 92 136 103 125 129 135 152 189 213 246 255 261 246 233 229 214 202 208 199 220 249 239 234 219 209 197 185 177 183 195
39 23 34 42 85 113 112 133 101 109 128 131 115 131 121 141 174 158 132 145 149 194 247 282 273 270 260 251 236 207 201 200 200 195 197 209 196 196 198 212 231 242 250 235
43 45 37 51 51 86 77 91 122 146 117 113 99 80 87 115 149 115 108 124 152 180 189 214 226 208 192 201 193 182 176 186 181 176 147 134 143 161 185 222 257 254 217 190
27 60 54 45 38 53 81 98 103 83 41 40 56 65 78 116 125 92 70 88 117 122 156 152 151 172 209 205 195 197 206 186 163 137 127 137 141 147 184 209 183 158 151 156
7 43 88 50 32 32 17 40 71 81 70 94 72 75 69 54 89 98 68 78 100 139 133 159 198 212 216 210 186 160 145 127 104 105 129 143 158 189 172 142 138 142 140 124
17 28 35 55 41 51 43 54 76 92 84 62 70 63 71 76 141 96 112 119 144 142 173 201 213 223 209 177 157 153 154 142 129 151 178 197 202 174 151 140 130 120 107 100
39 11 5 15 6 19 48 59 82 88 79 67 54 53 91 118 151 121 146 197 179 163 204 235 258 248 233 222 200 179 164 151 160 181 199 187 159 145 131 118 109 110 107 95
27 2 4 12 11 24 42 41 67 88 72 83 60 71 66 80 123 132 190 193 165 193 267 279 277 271 267 248 209 183 169 164 166 203 195 167 143 124 114 115 116 97 86 86
35 16 28 26 39 43 40 44 42 49 60 81 85 75 91 58 164 179 176 183 210 288 330 330 330 318 282 235 192 161 142 152 198 191 156 131 127 118 124 111 89 74 78 90
24 37 42 29 54 50 35 18 60 58 65 97 116 77 127 150 104 127 147 202 275 381 426 417 376 333 275 215 151 124 127 169 162 147 124 116 106 109 100 79 69 73 90 102
17 36 36 24 50 31 23 47 64 59 70 107 127 95 96 107 137 158 156 258 374 469 442 396 334 259 182 144 130 135 154 128 126 103 94 92 100 98 81 71 77 91 107 89
33 43 41 33 28 16 33 58 68 71 64 80 85 95 108 163 182 187 208 314 358 346 329 277 200 167 153 148 145 146 121 108 99 96 88 87 95 85 68 74 82 88 84 88
62 77 63 60 43 13 27 43 64 86 43 69 80 104 148 152 158 121 235 284 314 288 236 207 177 143 142 140 138 122 110 106 92 84 81 86 81 74 77 82 86 91 94 75
59 72 82 100 65 23 37 83 86 91 22 42 51 110 164 148 139 169 254 280 245 204 176 168 158 137 117 100 102 110 102 82 70 74 91 93 86 77 77 89 101 92 57 97
46 62 54 94 81 25 60 86 62 -18 76 98 116 123 172 225 269 293 275 270 221 198 185 144 128 108 83 82 100 86 76 66 67 82 94 92 79 81 88 100 96 83 94 127
58 64 54 69 41 33 29 -17 9 77 108 105 133 146 224 281 270 276 276 225 186 164 133 102 116 107 78 74 82 81 72 62 66 91 92 89 80 82 91 92 90 103 121 129
68 96 81 89 11 -19 -23 -0 91 98 119 125 131 166 203 245 260 261 208 167 158 134 130 129 114 110 83 71 70 76 59 67 88 88 86 78 72 72 80 95 111 132 126 97
65 104 76 17 6 9 6 79 114 131 157 194 191 180 213 257 230 202 175 169 153 146 126 112 105 80 64 65 61 63 69 77 92 86 78 67 70 66 78 95 106 120 125 92
140 118 15 44 -46 -57 -55 40 141 197 192 197 235 227 214 226 195 167 164 155 138 118 116 95 79 75 64 65 70 67 68 79 87 72 74 68 68 61 89 110 108 88 77 35

GFSCGP_con_3kmhel_084.txt.gz
Helicity
103 143 121 141 154 230 179 168 210 198 178 204 146 158 113 131 145 118 114 126 97 82 114 115 171 257 272 256 242 248 252 212 228 227 223 166 128 104 90 84 84 83 82 83
112 89 60 49 89 126 162 165 172 193 171 176 133 105 125 106 119 95 80 101 100 105 99 140 208 282 256 265 241 249 219 195 186 201 194 151 120 85 86 86 69 64 73 84
108 21 26 49 106 119 117 122 131 157 175 180 125 136 111 114 114 82 61 51 77 78 111 185 195 209 272 281 216 197 192 164 159 186 217 172 154 116 102 93 68 60 76 83
47 14 17 74 104 97 90 34 109 117 145 138 155 114 125 136 111 127 84 78 102 127 142 137 148 201 256 236 205 183 170 150 138 148 159 141 113 112 91 98 87 82 94 97
22 24 38 60 76 68 68 83 122 113 99 98 117 115 65 107 107 74 117 122 173 185 138 98 122 182 237 240 192 167 158 144 127 120 129 126 112 95 101 107 113 116 123 120
12 19 26 56 75 81 98 97 133 145 107 112 80 113 50 81 60 59 109 158 178 163 130 95 118 198 255 242 208 178 163 139 114 112 114 106 103 115 125 125 133 152 169 190
-1 34 46 47 68 92 79 105 110 157 140 85 66 108 51 58 76 31 57 90 124 116 83 74 129 197 229 232 201 173 147 139 127 119 127 125 122 128 133 148 163 182 194 206
-15 25 65 99 73 36 88 73 96 76 59 56 93 72 90 51 34 123 125 126 133 105 74 81 99 157 203 194 196 183 178 187 173 179 178 173 168 174 187 190 194 188 178 177
10 -38 70 63 89 64 51 89 64 45 86 83 92 103 57 60 82 138 179 147 108 93 96 107 126 161 192 211 200 201 216 216 213 217 210 206 196 193 182 171 160 163 176 191
124 184 62 43 102 82 51 52 90 108 91 100 74 67 49 45 79 92 104 107 100 108 119 131 167 184 216 229 238 237 228 226 207 201 195 192 193 187 171 159 153 152 170 209
139 164 36 57 77 84 85 82 110 101 99 98 155 61 12 18 43 60 63 80 83 89 105 141 180 217 241 240 229 232 211 187 173 165 166 178 174 163 149 145 143 158 194 205
73 -20 46 85 111 76 58 79 47 68 46 45 21 36 20 17 7 77 61 68 66 75 97 139 177 205 218 208 209 190 166 163 155 152 156 148 133 130 149 162 168 186 176 160
17 12 -8 -1 2 118 80 55 33 33 29 8 39 29 61 38 53 35 72 61 50 85 131 154 175 186 183 183 181 194 202 184 150 134 136 144 157 164 165 168 181 166 147 137
14 26 33 -14 -29 -18 5 59 22 43 33 30 24 28 40 29 43 44 56 63 71 107 129 149 169 159 159 177 184 181 177 174 171 167 163 151 154 173 181 179 162 159 147 124
34 26 7 -5 -17 5 4 4 -3 12 44 29 11 14 13 16 49 58 52 91 119 129 131 135 146 169 185 193 195 203 210 185 153 140 145 167 170 173 175 167 155 131 119 110
25 12 -4 -20 11 21 -0 -12 -0 13 23 20 26 18 20 46 82 77 78 120 122 127 135 171 203 220 217 226 238 222 185 163 154 167 155 160 169 156 150 136 131 117 103 99
24 23 20 14 30 21 28 9 8 41 46 43 36 10 42 53 83 92 95 102 117 160 205 234 239 257 292 275 225 194 173 161 147 159 180 156 142 127 119 118 114 100 98 107
25 30 24 6 18 29 -8 -0 6 4 5 44 54 57 73 76 101 105 70 85 140 190 248 272 310 336 297 236 207 184 152 160 181 151 126 129 125 107 111 114 109 105 107 107
30 32 28 25 9 3 13 3 17 25 10 28 72 100 85 81 80 109 96 90 115 158 240 301 306 275 227 200 168 173 181 143 127 129 119 103 103 104 116 115 107 105 115 115
49 50 42 35 17 -9 -7 4 15 25 14 33 49 70 70 65 86 58 82 97 171 219 235 257 248 215 189 147 146 144 129 132 122 108 96 95 101 108 111 110 102 118 126 112
41 50 61 68 19 -7 10 17 20 31 -4 15 26 54 71 61 54 72 110 166 164 203 216 208 204 181 144 140 138 130 124 110 95 99 97 96 99 101 101 105 121 117 108 104
32 37 27 54 39 2 28 28 12 12 24 29 48 54 78 87 115 140 146 182 211 217 203 185 167 148 138 116 119 117 103 95 98 97 101 101 98 101 107 107 111 102 99 100
58 50 37 43 5 21 23 39 56 55 32 36 32 59 123 153 134 155 190 203 196 181 174 141 144 150 121 123 105 100 93 94 94 103 104 100 95 96 108 110 73 90 92 92
56 59 62 50 14 5 30 69 87 79 60 41 66 122 132 155 182 200 213 199 195 175 159 142 157 143 121 96 92 85 82 87 96 92 94 96 94 90 105 74 89 89 72 72
65 76 46 31 47 29 33 60 59 77 80 120 136 126 138 198 189 195 185 178 168 164 165 149 133 111 96 92 94 88 87 92 93 92 90 87 92 100 -21 91 79 78 101 64
77 68 80 78 47 37 18 35 41 19 68 109 162 177 169 167 181 177 169 156 167 170 149 134 120 105 96 98 88 80 78 84 82 87 89 90 101 56 -1 34 54 69 54 -1

GFSCGP_con_3kmhel_087.txt.gz
Helicity
85 121 108 88 77 83 183 189 102 136 149 176 160 158 115 128 138 134 127 99 80 40 43 54 74 90 117 153 178 180 171 189 189 188 152 130 113 112 87 72 67 71 78 80
156 173 133 66 56 70 84 208 148 141 148 160 148 127 141 122 118 94 64 71 84 119 104 96 103 126 155 143 159 148 150 179 139 144 139 114 125 97 83 73 65 69 77 78
142 179 67 73 39 54 58 121 159 117 117 150 125 135 115 118 91 92 67 69 88 115 118 105 105 134 160 151 163 143 159 146 118 126 177 164 172 133 91 69 61 60 70 80
49 50 62 29 19 27 51 13 65 83 159 148 138 122 118 114 93 92 85 75 75 74 57 78 122 116 108 135 148 174 146 94 97 125 136 135 120 116 77 76 77 84 75 77
79 41 48 27 11 22 30 21 45 61 90 106 141 109 97 123 115 81 99 112 114 124 112 91 102 101 99 138 154 141 98 106 96 96 99 110 114 108 103 95 97 105 116 116
77 14 7 10 27 48 27 76 96 97 93 118 62 80 45 75 75 93 78 99 122 148 144 126 121 134 142 147 185 157 132 120 116 123 116 108 109 108 103 109 118 133 146 158
15 4 11 -3 38 61 61 48 93 84 85 68 78 68 50 45 66 61 47 56 102 125 110 111 115 125 149 163 201 199 173 175 155 131 116 117 108 103 108 125 139 151 172 193
25 -4 24 37 51 41 57 60 81 118 70 56 75 45 16 46 25 38 81 65 85 103 113 102 81 92 143 172 195 205 197 195 172 156 153 143 139 146 156 154 171 198 206 201
120 49 59 10 52 53 48 -21 88 92 81 45 47 44 20 17 43 60 101 111 101 109 102 88 98 111 143 177 191 198 205 212 196 188 190 194 189 185 187 193 194 189 182 171
217 83 13 53 37 38 33 40 49 72 47 52 51 42 29 31 30 49 39 68 95 96 98 119 136 141 164 185 211 215 208 205 203 211 197 187 183 189 189 173 162 150 158 166
229 141 57 17 35 78 62 60 74 60 28 51 74 48 41 30 9 6 19 51 79 114 137 149 155 168 187 213 216 213 206 206 197 176 176 191 190 167 151 152 148 140 135 135
105 88 128 147 114 76 76 65 61 42 39 64 48 64 10 17 0 -5 22 58 97 111 124 134 150 166 191 212 215 199 201 193 183 190 183 166 153 153 148 136 136 144 156 179
43 83 61 102 72 69 -5 38 52 54 33 30 58 11 10 21 -6 -10 39 60 87 106 113 126 136 149 172 208 209 211 206 201 180 160 153 151 145 135 140 147 157 166 169 148
61 57 64 10 -36 49 30 33 42 32 22 19 37 54 9 5 20 47 50 65 86 98 108 112 122 156 190 194 194 202 207 185 160 156 146 134 142 154 152 156 159 152 140 124
39 43 42 32 33 45 27 -14 13 10 20 5 8 -5 16 17 17 37 61 97 102 93 86 99 140 155 168 195 215 213 193 172 150 146 160 178 158 141 138 135 127 125 115 100
37 31 13 27 16 -4 20 15 -2 3 7 19 24 49 23 37 48 64 73 100 96 95 108 122 129 163 198 209 206 207 193 166 159 188 184 152 131 128 126 126 111 102 95 89
42 28 10 7 4 1 3 -4 -3 15 26 32 27 8 30 40 59 76 80 86 104 123 118 143 167 195 213 225 210 190 175 183 183 151 132 135 137 129 116 104 107 95 93 92
61 38 26 9 19 18 4 17 1 0 6 9 21 34 48 48 60 79 75 69 81 109 168 195 223 254 257 226 203 202 190 162 137 132 136 139 115 92 99 103 100 97 101 97
45 47 27 16 14 10 14 -9 -8 17 11 8 25 57 60 38 43 88 78 70 83 107 149 204 239 245 222 210 195 176 147 131 133 134 119 99 93 88 95 104 102 102 104 96
56 56 43 27 17 10 -15 -23 -5 7 28 18 17 34 34 32 52 35 72 94 131 167 190 215 215 211 197 169 148 144 142 130 117 94 90 85 82 88 98 101 104 111 104 98
61 67 57 51 19 -11 -30 -26 -14 7 -14 0 11 25 48 35 31 72 119 165 169 159 175 187 189 183 153 133 131 134 123 104 82 86 81 91 94 90 94 98 101 101 99 90
51 73 51 55 38 31 -5 -9 -8 -5 8 4 29 48 77 81 109 150 167 164 153 170 179 177 170 146 130 114 112 124 106 87 86 88 88 87 84 93 98 97 96 93 94 82
63 59 69 61 30 17 36 23 22 46 27 25 39 69 104 140 141 164 157 153 158 171 165 127 137 139 117 113 100 109 100 86 84 88 89 81 84 91 97 93 60 63 82 79
63 66 69 72 66 8 9 47 79 85 57 48 62 85 112 143 173 173 178 176 185 161 136 124 141 139 125 95 92 83 78 78 84 76 71 73 76 78 91 75 63 74 77 59
64 76 65 40 60 33 0 3 18 53 93 78 84 70 102 175 168 184 170 171 147 133 130 130 131 118 115 108 103 85 81 75 72 72 63 63 65 72 52 64 65 66 50 29
57 54 60 30 13 21 40 28 26 52 79 66 66 105 130 144 181 173 174 142 129 136 140 139 128 115 110 104 112 108 94 94 85 70 58 57 62 37 32 37 56 52 49 6

GFSCGP_con_3kmhel_093.txt.gz
Helicity
97 73 48 69 86 90 88 88 110 114 70 77 38 62 36 63 119 96 87 66 90 58 57 108 110 48 110 150 61 163 219 268 249 188 118 133 125 98 97 93 73 75 79 81
55 87 16 46 88 55 61 54 71 69 89 65 41 50 38 23 103 96 68 70 70 53 95 99 147 202 230 299 109 197 201 250 185 148 87 107 108 98 102 110 93 88 82 82
46 45 51 45 46 43 44 44 59 73 47 26 57 42 41 26 86 72 65 59 91 86 92 123 202 236 180 153 160 130 201 199 156 118 105 110 151 132 142 121 126 108 92 87
62 41 23 25 16 33 39 15 20 39 73 118 66 115 56 36 112 98 64 55 56 103 171 140 109 106 98 111 147 150 169 170 130 102 135 188 169 152 124 122 125 117 89 84
39 10 9 8 24 -5 20 -4 18 22 27 53 37 52 38 43 57 56 58 66 78 123 118 138 135 129 123 100 108 134 145 152 101 137 152 171 180 161 146 125 121 108 91 74
46 21 43 6 -7 13 15 -3 -12 -27 54 -40 -22 102 -2 138 -1 41 44 34 52 91 87 112 146 153 154 101 134 154 150 129 173 176 179 207 206 193 152 136 126 115 109 103
46 51 8 14 17 38 31 -18 -82 -26 8 18 38 7 142 229 56 118 41 65 112 73 101 113 129 142 94 127 131 139 170 241 205 202 236 221 202 142 130 130 126 131 134 137
111 111 3 -11 11 29 50 -56 35 15 -23 25 86 50 56 74 74 141 154 161 128 131 118 136 129 126 114 107 112 139 172 240 239 238 238 231 177 146 152 158 162 156 155 186
163 225 8 1 14 15 -10 -48 -27 5 109 58 126 12 20 11 37 47 81 87 101 113 122 139 133 129 127 125 144 170 219 267 271 259 233 182 160 168 192 184 183 205 232 215
199 230 51 15 47 29 18 76 13 82 65 42 9 59 162 57 32 34 32 60 73 80 106 124 150 154 159 173 173 208 221 239 247 219 199 190 182 183 188 204 216 208 218 199
102 188 67 -32 -18 5 34 47 87 153 70 45 64 120 86 88 43 28 51 59 72 92 100 116 131 140 143 147 172 208 218 230 220 244 185 179 185 195 211 223 206 199 188 177
95 106 135 124 -10 33 35 29 13 -15 156 43 -13 92 45 64 47 38 44 61 80 91 99 111 109 104 123 162 180 181 194 234 190 159 172 202 216 213 200 185 181 177 158 147
53 82 76 130 88 15 -20 11 12 3 -0 66 47 54 -13 -14 -12 15 25 36 51 76 90 90 99 127 147 158 159 179 181 167 170 186 199 194 191 181 190 185 165 142 134 134
52 62 66 53 30 54 77 41 8 12 14 -1 44 59 33 4 5 13 34 45 49 63 78 101 114 124 126 134 151 163 174 186 188 185 183 184 187 192 174 159 141 133 122 125
33 56 15 36 50 40 52 60 15 30 26 30 44 46 21 33 32 22 35 49 58 65 79 87 96 104 118 133 152 182 179 167 172 184 194 201 182 170 153 122 97 121 138 124
11 39 19 41 35 33 -0 10 28 20 2 -4 6 8 24 24 18 27 37 49 55 64 69 78 87 106 120 151 171 168 173 184 181 197 207 176 168 150 104 119 148 136 102 85
29 12 -4 15 26 -7 22 12 -5 -5 5 12 23 36 40 32 36 37 44 46 57 64 77 92 109 120 143 162 164 179 194 184 199 193 186 150 118 110 138 141 103 87 74 72
26 -3 8 10 -5 30 49 12 1 1 15 23 16 23 35 40 45 58 72 43 58 76 98 116 123 158 165 177 202 217 201 197 187 164 134 125 133 148 129 101 94 80 89 98
29 -2 -0 23 9 47 38 31 20 22 43 35 24 27 37 29 18 60 42 69 81 100 118 131 140 161 175 195 204 201 193 178 141 134 138 146 139 119 112 103 90 87 88 89
26 10 3 11 40 55 64 39 14 -0 38 23 16 19 21 11 18 60 59 81 116 128 128 144 155 156 190 192 185 167 157 129 132 148 144 134 120 114 95 84 81 82 77 78
42 30 17 3 28 50 52 29 21 29 58 29 23 29 27 32 55 75 94 126 133 134 140 141 152 182 185 163 141 150 143 145 163 132 120 108 98 87 82 76 71 71 71 76
52 50 35 42 27 51 64 26 46 52 34 30 29 33 49 72 73 95 127 138 138 140 137 151 171 175 159 143 127 138 150 157 126 118 103 99 86 83 69 61 61 59 64 -8
47 75 111 73 127 90 68 55 41 31 24 25 27 42 65 90 104 119 129 133 136 141 149 167 172 165 152 134 122 146 182 129 115 98 92 90 86 69 71 63 62 64 -43 -11
40 49 63 63 86 87 81 61 56 43 22 22 32 45 63 89 114 133 141 147 150 156 172 166 157 156 148 120 123 143 138 121 100 105 113 99 77 67 46 62 16 -54 -35 74
66 75 61 35 53 74 65 57 60 53 23 25 45 54 68 109 122 136 147 159 168 175 162 157 152 145 153 127 130 138 131 111 105 101 88 70 47 -7 -47 -67 -70 -42 29 93
44 27 33 18 95 156 144 82 72 36 23 23 53 72 98 122 141 147 163 179 178 164 162 152 150 141 143 128 145 145 121 112 103 67 34 -10 -32 -44 -47 -45 -38 42 113 -48